map of ISM home
ISM - Airport
Location
City:  Orlando, Florida, United States
Name:Kissimmee Gateway Airport
ICAO:KISM
IATA:ISM
FAA LID:ISM

Details
Type:Airport (Airfield)
Use:Public/Civil
Latitude:2817'23"N (28.289806)
Longitude:8126'13"W (-81.437082)
Datum:WGS 1984
Elevation:82 ft (25 m)
Variation:6.38W (WMM2015 magnetic declination)
-0.09 annual change
Runways:2
Longest:6001 × 100 ft (1829 × 30.5 m), paved

Time
Time Zone:UTC-5 (DST-4)
Local Time:

Weather
METAR:KISM 190256Z AUTO 06004KT 10SM CLR 26/23 A3022 RMK AO2 SLP233 T02610228 51012
TAF:KISM 182334Z 1900/1924 09008KT P6SM FEW030
FM190300 04003KT P6SM FEW030
FM191400 09006KT P6SM SCT030

Related Locations
Nearby:
Farthest:USL: 11522 mi / 18543 km
Useless Loop, WA, AU

Find:

   beyond  
but within

Other Information
Maps:
NOTAMs:
Links:
Sources:

  
  • flag of United States
  • flag of Florida
  • flag of Orlando
  

Airport Diagram

Airport diagram for ISM

Airport diagram PDF

Sectional Chart

Flight Planning
at skyvector.com

Satellite Image

Google Maps Satellite view

 

Copyright © 2004-2018 Karl L. Swartz. All rights reserved.
The Great Circle Mapper name and logo are trademarks of the Great Circle Mapper.
All other trademarks mentioned herein belong to their respective owners.
Please see credits for attibutions and further copyright information.

  Follow gcmap on Facebook Follow gcmap on Twitter Follow gcmap on Google+ GCmap on LinkedIn

hCard Microformat

Geo Microformat